Location: Ackerson Creek
(37.8210°N, 119.8757°W)
Time: 16:13:00
(UTC+00:00)

SL-16 R/B - Pass Details

Date: 13 April 2024
Orbit: 839 x 849 km, 71.0° (Epoch: 22 May)

Event Time Altitude Azimuth Distance (km) Brightness Sun altitude
Exits shadow 12:40:41 - 219° (SW) 2,722 4.3 -9.5°
Reaches altitude 10° 12:41:26 10° 221° (SW) 2,447 4.1 -9.3°
Maximum altitude 12:46:52 51° 296° (WNW) 1,055 2.5 -8.3°
Drops below altitude 10° 12:52:22 10° 12° (NNE) 2,466 5.1 -7.3°
Sets 12:54:54 0° 18° (NNE) 3,406 5.9 -6.8°
